When you browse on this site, cookies collect data to enhance your experience and personalize the content and advertising you see.
Visit our Privacy Policy to learn more. By continuing to use the site, you agree to this use of cookies and data.
  • en Suisse
  • Liste des pays
  • À 7 jours
  • Température de l'eau
  • Carte satellitaire
  • Carte météo
  • Widgets météo
  • user-avatar
    Se connecter

    Météo par heure à Vladimirskoe

    Ce jour, 24 Juin, Lundi

    Heure Température Précipitation Vent Pression Humidité
    00:00 +21°C° 1.3 mm 1 m/s 747 mmHg 94%
    01:00 +20°C° 0.2 mm 2 m/s 748 mmHg 95%
    02:00 +20°C° 0.2 mm 2 m/s 748 mmHg 95%
    03:00 +20°C° 0 mm 4 m/s 748 mmHg 98%
    04:00 +19°C° 0.6 mm 4 m/s 748 mmHg 97%
    05:00 +18°C° 0.6 mm 4 m/s 748 mmHg 97%
    06:00 +18°C° 0.6 mm 4 m/s 748 mmHg 96%
    07:00 +18°C° 0.2 mm 4 m/s 748 mmHg 94%
    08:00 +19°C° 0.2 mm 4 m/s 748 mmHg 92%
    09:00 +20°C° 0 mm 4 m/s 749 mmHg 90%
    10:00 +21°C° 0 mm 4 m/s 749 mmHg 86%
    11:00 +22°C° 0 mm 5 m/s 749 mmHg 82%
    12:00 +22°C° 0 mm 5 m/s 749 mmHg 78%
    13:00 +23°C° 0 mm 5 m/s 749 mmHg 74%
    14:00 +23°C° 0 mm 5 m/s 749 mmHg 71%
    15:00 +25°C° 0 mm 5 m/s 749 mmHg 67%
    16:00 +23°C° 0 mm 5 m/s 749 mmHg 69%
    17:00 +23°C° 0 mm 4 m/s 749 mmHg 71%
    18:00 +23°C° 0 mm 4 m/s 749 mmHg 73%
    19:00 +21°C° 0 mm 4 m/s 749 mmHg 76%
    20:00 +20°C° 0 mm 3 m/s 750 mmHg 79%
    21:00 +18°C° 0 mm 3 m/s 750 mmHg 83%
    22:00 +18°C° 0 mm 3 m/s 750 mmHg 80%
    23:00 +17°C° 0 mm 3 m/s 750 mmHg 78%

    Demain, 25 Juin, Mardi

    Heure Température Précipitation Vent Pression Humidité
    00:00 +16°C° 0 mm 3 m/s 750 mmHg 75%
    01:00 +16°C° 0 mm 3 m/s 751 mmHg 73%
    02:00 +14°C° 0 mm 3 m/s 751 mmHg 70%
    03:00 +14°C° 0 mm 2 m/s 752 mmHg 67%
    04:00 +14°C° 0 mm 3 m/s 752 mmHg 70%
    05:00 +14°C° 0 mm 3 m/s 752 mmHg 72%
    06:00 +14°C° 0 mm 3 m/s 752 mmHg 75%
    07:00 +16°C° 0 mm 3 m/s 752 mmHg 73%
    08:00 +18°C° 0 mm 4 m/s 753 mmHg 70%
    09:00 +19°C° 0 mm 4 m/s 753 mmHg 68%
    10:00 +20°C° 0 mm 4 m/s 753 mmHg 64%
    11:00 +21°C° 0 mm 4 m/s 753 mmHg 60%
    12:00 +21°C° 0 mm 5 m/s 753 mmHg 56%
    13:00 +21°C° 0 mm 4 m/s 753 mmHg 56%
    14:00 +22°C° 0 mm 4 m/s 753 mmHg 56%
    15:00 +22°C° 0 mm 4 m/s 753 mmHg 56%
    16:00 +21°C° 0 mm 4 m/s 753 mmHg 59%
    17:00 +21°C° 0 mm 4 m/s 753 mmHg 62%
    18:00 +20°C° 0 mm 3 m/s 753 mmHg 66%
    19:00 +19°C° 0 mm 3 m/s 753 mmHg 68%
    20:00 +17°C° 0 mm 2 m/s 753 mmHg 70%
    21:00 +16°C° 0 mm 2 m/s 753 mmHg 72%
    22:00 +15°C° 0 mm 2 m/s 753 mmHg 72%
    23:00 +15°C° 0 mm 2 m/s 753 mmHg 72%

    Après-demain, 26 Juin, Mercredi

    Heure Température Précipitation Vent Pression Humidité
    00:00 +14°C° 0 mm 1 m/s 753 mmHg 71%
    01:00 +14°C° 0 mm 2 m/s 753 mmHg 72%
    02:00 +13°C° 0 mm 2 m/s 753 mmHg 73%
    03:00 +13°C° 0 mm 2 m/s 754 mmHg 73%
    04:00 +13°C° 0 mm 2 m/s 753 mmHg 75%
    05:00 +14°C° 0 mm 2 m/s 753 mmHg 77%
    06:00 +14°C° 0 mm 2 m/s 753 mmHg 78%
    07:00 +16°C° 0 mm 2 m/s 753 mmHg 74%
    08:00 +17°C° 0 mm 2 m/s 753 mmHg 69%
    09:00 +19°C° 0 mm 2 m/s 753 mmHg 64%
    10:00 +20°C° 0 mm 2 m/s 753 mmHg 61%
    11:00 +20°C° 0 mm 2 m/s 752 mmHg 58%
    12:00 +21°C° 0 mm 2 m/s 752 mmHg 54%
    13:00 +22°C° 0 mm 3 m/s 751 mmHg 55%
    14:00 +22°C° 0 mm 3 m/s 751 mmHg 55%
    15:00 +22°C° 0 mm 3 m/s 751 mmHg 56%
    16:00 +22°C° 0.3 mm 3 m/s 750 mmHg 61%
    17:00 +21°C° 0.3 mm 3 m/s 749 mmHg 67%
    18:00 +21°C° 0.3 mm 3 m/s 749 mmHg 72%
    19:00 +20°C° 0.3 mm 3 m/s 748 mmHg 76%
    20:00 +18°C° 0.3 mm 3 m/s 748 mmHg 80%
    21:00 +17°C° 0.3 mm 3 m/s 748 mmHg 84%
    22:00 +17°C° 0 mm 2 m/s 747 mmHg 86%
    23:00 +16°C° 0 mm 1 m/s 747 mmHg 88%

    27 Juin, Jeudi

    Heure Température Précipitation Vent Pression Humidité
    00:00 +14°C° 0 mm 0 m/s 747 mmHg 90%
    01:00 +15°C° 0 mm 1 m/s 746 mmHg 91%
    02:00 +15°C° 0 mm 1 m/s 746 mmHg 92%
    03:00 +15°C° 0 mm 1 m/s 745 mmHg 93%
    04:00 +15°C° 0.1 mm 1 m/s 745 mmHg 92%
    05:00 +15°C° 0.1 mm 1 m/s 745 mmHg 92%
    06:00 +14°C° 0.1 mm 0 m/s 744 mmHg 92%
    07:00 +15°C° 0.4 mm 1 m/s 744 mmHg 93%
    08:00 +15°C° 0.4 mm 2 m/s 743 mmHg 94%
    09:00 +15°C° 0.4 mm 2 m/s 743 mmHg 95%
    10:00 +16°C° 0.3 mm 3 m/s 742 mmHg 93%
    11:00 +15°C° 0.3 mm 4 m/s 741 mmHg 90%
    12:00 +16°C° 0.3 mm 5 m/s 741 mmHg 88%
    13:00 +16°C° 0.6 mm 5 m/s 740 mmHg 90%
    14:00 +16°C° 0.6 mm 5 m/s 739 mmHg 92%
    15:00 +16°C° 0.6 mm 5 m/s 738 mmHg 93%
    16:00 +17°C° 1.4 mm 5 m/s 737 mmHg 93%
    17:00 +17°C° 1.4 mm 5 m/s 736 mmHg 92%
    18:00 +19°C° 1.4 mm 5 m/s 735 mmHg 92%
    19:00 +19°C° 1.2 mm 5 m/s 735 mmHg 92%
    20:00 +19°C° 1.2 mm 6 m/s 734 mmHg 92%
    21:00 +17°C° 1.2 mm 6 m/s 733 mmHg 92%
    22:00 +17°C° 3.5 mm 7 m/s 732 mmHg 93%
    23:00 +17°C° 3.5 mm 7 m/s 731 mmHg 94%

    28 Juin, Vendredi

    Heure Température Précipitation Vent Pression Humidité
    00:00 +16°C° 3.5 mm 8 m/s 730 mmHg 95%
    01:00 +16°C° 1 mm 7 m/s 730 mmHg 95%
    02:00 +16°C° 1 mm 7 m/s 729 mmHg 96%
    03:00 +16°C° 1 mm 6 m/s 729 mmHg 96%
    04:00 +15°C° 0.4 mm 5 m/s 729 mmHg 95%
    05:00 +15°C° 0.4 mm 5 m/s 728 mmHg 94%
    06:00 +15°C° 0.4 mm 5 m/s 728 mmHg 94%
    07:00 +14°C° 0 mm 5 m/s 728 mmHg 92%
    08:00 +14°C° 0 mm 5 m/s 728 mmHg 91%
    09:00 +14°C° 0 mm 5 m/s 728 mmHg 89%
    10:00 +15°C° 0.1 mm 6 m/s 727 mmHg 87%
    11:00 +15°C° 0.1 mm 6 m/s 727 mmHg 84%
    12:00 +16°C° 0.1 mm 7 m/s 727 mmHg 81%
    13:00 +15°C° 0.3 mm 7 m/s 727 mmHg 83%
    14:00 +15°C° 0.3 mm 8 m/s 727 mmHg 85%
    15:00 +13°C° 0.3 mm 8 m/s 726 mmHg 86%
    16:00 +12°C° 0.4 mm 8 m/s 726 mmHg 89%
    17:00 +12°C° 0.4 mm 7 m/s 726 mmHg 91%
    18:00 +11°C° 0.4 mm 7 m/s 726 mmHg 93%
    19:00 +11°C° 0.4 mm 7 m/s 726 mmHg 93%
    20:00 +11°C° 0.4 mm 7 m/s 726 mmHg 93%
    21:00 +10°C° 0.4 mm 8 m/s 725 mmHg 94%
    22:00 +10°C° 0.3 mm 7 m/s 725 mmHg 94%
    23:00 +10°C° 0.3 mm 7 m/s 725 mmHg 95%

    29 Juin, Samedi

    Heure Température Précipitation Vent Pression Humidité
    00:00 +11°C° 0.3 mm 7 m/s 725 mmHg 95%
    01:00 +11°C° 0.3 mm 7 m/s 725 mmHg 95%
    02:00 +10°C° 0.3 mm 7 m/s 724 mmHg 95%
    03:00 +10°C° 0.3 mm 7 m/s 724 mmHg 94%
    04:00 +10°C° 0.4 mm 7 m/s 724 mmHg 94%
    05:00 +10°C° 0.4 mm 7 m/s 724 mmHg 94%
    06:00 +10°C° 0.4 mm 7 m/s 724 mmHg 94%
    07:00 +10°C° 0.1 mm 7 m/s 724 mmHg 93%
    08:00 +10°C° 0.1 mm 7 m/s 724 mmHg 93%
    09:00 +10°C° 0.1 mm 8 m/s 725 mmHg 92%
    10:00 +10°C° 0.1 mm 8 m/s 725 mmHg 92%
    11:00 +10°C° 0.1 mm 8 m/s 726 mmHg 92%
    12:00 +10°C° 0.1 mm 8 m/s 726 mmHg 91%
    13:00 +10°C° 0.1 mm 7 m/s 726 mmHg 91%
    14:00 +10°C° 0.1 mm 7 m/s 726 mmHg 90%
    15:00 +10°C° 0.1 mm 7 m/s 727 mmHg 90%
    16:00 +10°C° 0.1 mm 7 m/s 727 mmHg 90%
    17:00 +10°C° 0.1 mm 7 m/s 727 mmHg 90%
    18:00 +10°C° 0.1 mm 6 m/s 728 mmHg 89%
    19:00 +9°C° 0.3 mm 6 m/s 728 mmHg 91%
    20:00 +9°C° 0.3 mm 6 m/s 728 mmHg 92%
    21:00 +9°C° 0.3 mm 5 m/s 728 mmHg 93%
    22:00 +8°C° 0.6 mm 5 m/s 728 mmHg 94%
    23:00 +8°C° 0.6 mm 5 m/s 728 mmHg 95%
    Voir plus